Tracking 31027 objects as of 19-Jul-2025
HD Live streaming from Space Station
objects crossing your sky now

STARLINK-3559

Track STARLINK-3559 now!
10-day predictions
STARLINK-3559 is classified as:


NORAD ID: 51860
Int'l Code: 2022-022J
Perigee: 546.0 km
Apogee: 547.8 km
Inclination: 53.2 °
Period: 95.4 minutes
Semi major axis: 6917 km
RCS: Unknown
Launch date: March 3, 2022
Source: United States (US)
Launch site: AIR FORCE EASTERN TEST RANGE (AFETR)
Your satellite tracking list
FENGYUN 1C DEB
Track 1 satellite(s)




NASA's NSSDC Master Catalog

Two Line Element Set (TLE):
1 51860U 22022J   25199.37111692  .00000106  00000-0  24730-4 0  9991
2 51860  53.2197 341.0179 0001245  93.0445 267.0689 15.08836206187745
Source of the keplerian elements: AFSPC